Wind_Speed
29 30 30 30 30 31 33 34 35 34 33 33 33 34 34 35 36 36 37 37 38 38 39 39 40 41 42 43 42 43 43 43 44 44 44 44 44 45 44 44 44 44 44 44
30 30 31 31 31 31 32 33 34 33 32 31 32 34 34 34 35 36 37 37 38 38 38 38 39 40 41 41 42 43 43 43 44 44 44 44 45 44 43 43 43 43 43 43
31 31 32 32 31 31 31 31 32 32 31 30 32 33 33 33 34 35 36 37 37 38 38 38 38 39 40 41 42 42 43 44 44 44 44 44 44 43 43 43 43 43 43 43
31 31 33 31 30 30 31 30 30 30 30 30 31 31 32 33 33 33 34 35 36 37 38 38 38 38 39 40 41 42 43 43 43 43 43 43 43 43 43 43 42 42 42 42
29 31 31 29 28 29 29 29 28 28 28 29 30 30 30 31 32 32 33 34 34 35 36 36 37 38 39 39 40 41 41 41 41 41 42 42 42 42 42 42 42 42 41 41
28 29 29 28 27 27 29 29 27 28 28 28 28 29 29 30 31 32 33 33 33 34 35 35 36 37 38 39 39 39 38 38 39 40 40 41 41 41 41 41 41 41 41 41
28 29 28 26 26 27 28 27 27 28 27 27 28 28 28 29 30 31 32 32 33 33 34 35 36 37 38 38 38 38 37 37 38 38 39 39 39 40 40 40 40 40 40 40
28 29 28 27 27 27 27 26 27 26 26 27 28 28 28 29 30 30 31 32 32 33 34 34 35 35 36 36 36 36 36 36 37 37 38 38 38 38 38 38 38 38 38 38
29 29 28 27 27 27 26 27 27 26 26 27 27 28 28 29 30 30 31 32 32 32 33 33 34 34 34 34 35 35 35 35 36 36 37 38 38 38 37 37 37 37 37 37
29 28 27 26 26 26 27 26 26 27 27 27 27 28 28 29 29 30 31 31 32 31 32 33 33 34 34 34 34 34 35 35 35 35 35 36 36 37 37 37 37 36 36 36
27 26 26 26 26 26 27 26 27 27 27 28 27 27 28 28 29 29 29 30 30 31 32 32 33 33 33 33 33 34 34 34 35 35 34 34 34 34 34 34 35 35 35 34
27 27 27 26 26 27 27 27 26 26 26 27 27 26 27 27 28 29 29 30 31 31 31 32 32 32 33 33 33 34 34 34 34 34 34 33 33 32 32 32 32 32 33 33
26 26 26 26 26 27 27 26 26 26 26 27 27 28 27 27 28 28 29 30 30 30 31 31 31 31 31 31 32 32 32 32 32 32 32 32 32 32 31 31 31 31 30 30
26 26 26 26 26 26 26 26 26 26 26 27 28 28 28 28 29 29 29 29 29 29 29 29 29 29 29 30 30 31 32 32 31 31 31 31 31 31 30 30 30 30 30 30
26 26 26 26 26 27 26 27 27 27 27 27 28 28 28 29 29 29 29 28 28 28 28 28 29 30 30 30 31 31 31 31 31 31 31 30 30 30 29 29 29 30 30 30
25 26 27 27 27 28 28 28 29 28 28 29 28 28 29 29 29 29 29 28 28 28 28 28 29 30 31 31 31 32 31 31 31 31 30 29 29 28 28 28 28 28 29 29
24 25 26 26 27 28 29 29 28 28 28 29 29 29 29 30 30 30 30 30 30 30 30 31 31 31 31 31 31 30 30 30 30 29 29 29 28 28 28 28 28 28 28 28
23 24 25 25 25 26 27 27 28 28 29 29 30 30 30 31 31 31 31 31 31 31 31 32 32 32 31 31 30 29 29 29 29 28 28 28 28 28 28 28 28 28 28 28
22 22 23 24 25 26 26 27 28 29 29 29 30 30 31 31 31 31 31 32 32 31 31 32 32 31 31 30 29 29 28 28 27 27 27 27 27 27 27 27 28 28 27 27
22 23 24 25 26 26 27 28 29 29 30 30 30 30 30 31 31 31 31 31 31 30 30 30 30 30 30 29 29 28 27 27 26 25 25 25 25 25 26 26 26 26 26 26
23 23 24 25 26 27 27 28 28 28 29 29 30 30 31 31 32 32 31 31 30 30 30 30 30 29 28 28 27 27 26 25 25 24 24 24 24 24 24 24 24 23 23 23
22 23 23 24 25 25 26 26 27 27 27 28 29 30 30 30 30 31 31 31 30 30 30 29 29 28 27 26 26 25 24 24 23 23 23 23 22 22 22 22 21 21 21 21
21 22 22 23 23 24 24 25 26 26 27 28 29 29 29 29 29 30 29 29 30 29 29 28 27 26 25 24 24 23 23 22 22 21 21 21 20 20 19 19 19 19 19 18
21 21 22 22 23 23 24 25 25 26 26 26 27 27 27 27 28 27 27 27 27 26 26 26 25 23 23 22 22 22 21 21 21 20 20 19 18 18 18 18 18 18 17 17
21 22 22 23 23 23 24 25 25 25 25 25 26 26 27 26 26 26 26 25 25 24 23 23 22 22 21 20 20 20 20 19 19 19 19 19 18 18 18 18 18 17 17 16
21 21 22 22 23 23 23 24 24 25 25 25 26 26 26 25 25 24 24 23 22 21 20 20 20 20 20 19 18 18 18 18 18 18 18 18 17 17 17 16 16 15 15 14
21 21 21 21 21 22 22 23 23 23 24 24 24 24 24 24 23 22 21 20 19 18 18 18 18 19 19 18 18 18 17 17 17 17 17 17 17 16 16 15 15 14 14 13
Wind_Direction
263 262 262 262 263 263 263 264 265 264 263 264 264 265 265 265 263 263 262 262 262 262 261 261 260 261 262 263 264 264 265 266 268 269 270 271 272 273 273 274 274 275 274 274
263 262 261 261 262 264 265 265 265 264 263 264 265 266 266 266 264 264 263 264 263 262 261 261 261 262 263 265 264 264 265 266 267 269 271 272 272 273 273 273 274 274 275 275
264 263 262 261 264 266 267 268 268 267 266 264 265 266 266 265 264 264 264 265 265 263 263 263 263 264 264 266 265 265 265 266 267 269 271 272 272 272 272 273 274 274 274 275
266 264 262 265 266 267 267 267 268 268 267 266 266 266 266 264 265 266 268 268 266 265 265 265 265 266 266 268 266 266 266 267 268 269 270 270 271 272 272 273 274 275 275 275
267 267 267 266 268 269 269 268 267 268 269 269 269 268 267 266 266 268 269 269 267 267 267 267 268 268 269 269 268 267 267 267 267 268 269 270 271 271 272 273 274 275 275 276
267 268 268 270 270 270 269 267 266 268 270 270 271 269 268 268 269 269 270 268 268 268 269 269 270 270 271 270 269 268 267 268 268 268 269 270 271 271 272 272 273 275 275 276
265 267 269 270 270 271 271 271 269 268 269 269 269 271 270 269 269 270 271 270 270 270 271 272 272 273 273 271 270 268 268 269 269 269 270 271 271 271 272 272 273 274 275 275
264 265 268 270 271 272 273 271 269 268 268 269 269 270 270 271 271 271 272 272 272 273 273 274 274 275 274 272 270 268 269 270 270 271 271 272 272 272 272 272 273 274 275 275
265 266 268 270 269 271 271 268 268 268 268 269 270 271 271 272 273 273 273 274 273 274 275 275 276 276 275 272 270 269 270 271 271 272 272 272 271 271 271 272 274 275 275 276
266 266 267 268 269 268 268 268 267 267 268 269 271 271 272 273 274 274 274 274 274 275 276 276 276 277 276 274 271 271 271 272 272 273 274 274 272 272 272 272 274 275 276 276
264 264 266 267 268 267 268 267 266 266 267 269 271 272 272 272 273 274 274 274 275 276 277 277 276 276 277 275 274 273 273 273 273 273 274 274 274 274 275 275 276 275 275 276
264 265 265 265 265 266 267 267 267 267 268 269 272 273 273 274 275 275 275 276 277 278 278 278 277 276 276 274 273 274 273 274 273 273 274 274 274 274 275 276 276 277 276 275
263 262 263 263 265 267 266 266 267 267 268 269 272 275 277 278 278 278 278 278 279 280 279 279 279 278 277 276 274 274 274 273 274 274 274 274 274 274 274 275 276 277 278 278
262 261 261 263 264 266 267 267 268 269 271 272 273 276 279 280 281 281 281 280 279 279 278 277 278 279 279 279 277 276 275 274 274 275 275 274 274 274 274 274 275 276 277 277
262 261 261 263 264 266 268 269 270 270 272 273 274 276 279 280 281 282 282 281 280 279 278 277 278 279 280 281 279 277 275 274 274 275 275 274 274 274 275 275 276 276 276 277
264 263 262 262 264 266 268 270 272 272 273 274 274 275 278 279 280 281 281 281 279 278 279 279 279 279 279 280 279 277 274 273 273 272 273 274 274 274 275 275 276 277 277 277
264 264 265 266 266 267 269 270 272 272 274 274 275 275 277 279 279 279 280 280 279 278 278 280 280 280 279 279 278 276 274 273 271 270 271 272 273 273 273 275 277 278 278 277
267 266 266 267 268 269 270 272 273 275 276 277 276 276 278 279 280 280 280 280 280 279 279 280 279 279 278 278 277 275 273 272 271 270 270 271 271 272 273 274 276 278 279 279
270 268 268 269 271 271 273 274 275 276 277 278 278 279 279 280 281 281 282 281 280 279 279 279 278 278 277 276 275 274 272 271 271 270 269 269 270 272 274 276 277 279 279 279
272 272 271 271 272 273 274 275 276 276 277 279 279 280 280 280 281 281 281 281 280 279 278 277 277 277 277 275 274 273 271 269 269 269 269 270 272 273 275 276 278 279 279 279
274 274 273 273 273 274 275 276 277 279 279 279 279 280 281 281 282 281 281 280 279 278 277 277 277 276 275 273 271 270 268 267 267 267 268 270 271 272 273 275 276 277 278 278
275 275 275 275 275 275 276 278 279 280 281 281 281 282 283 283 283 282 281 280 278 277 276 276 274 273 273 270 268 267 265 264 265 266 267 269 271 272 272 273 274 275 277 278
276 277 278 278 277 277 279 280 281 282 283 284 284 284 285 285 284 284 282 281 279 276 274 273 271 270 269 267 265 263 262 262 264 265 266 268 270 271 273 274 275 275 276 278
278 279 280 281 281 281 281 283 285 285 286 287 287 287 286 286 285 284 284 283 281 276 272 269 267 266 265 264 264 262 260 260 261 262 263 266 268 269 273 275 276 274 274 276
279 280 281 283 284 284 284 285 287 287 288 290 290 289 288 287 286 285 284 283 280 277 272 266 263 262 262 263 262 260 259 259 259 259 260 264 266 268 272 275 274 272 272 274
282 283 283 284 285 286 286 287 288 289 289 289 290 290 290 289 287 286 283 280 277 274 270 266 263 261 260 260 260 260 260 258 258 258 259 262 265 268 271 272 272 270 270 270
284 285 286 287 288 289 290 291 291 291 291 291 292 291 291 290 288 285 282 279 276 273 270 267 263 260 259 259 259 259 259 258 257 258 259 261 263 265 267 269 268 267 267 266
Height
5598 5598 5598 5599 5599 5599 5599 5599 5600 5602 5602 5604 5603 5603 5603 5603 5603 5604 5605 5606 5607 5608 5608 5609 5610 5611 5611 5611 5612 5612 5611 5611 5611 5610 5609 5609 5608 5606 5605 5603 5602 5600 5598 5597
5589 5589 5588 5588 5590 5590 5590 5590 5590 5591 5593 5594 5593 5592 5592 5593 5593 5594 5594 5595 5596 5597 5597 5598 5598 5599 5599 5599 5599 5599 5599 5599 5599 5598 5597 5596 5595 5593 5592 5591 5589 5587 5586 5584
5579 5579 5578 5579 5582 5581 5581 5581 5582 5581 5585 5584 5583 5583 5583 5583 5583 5583 5584 5585 5585 5586 5586 5586 5587 5587 5587 5587 5587 5587 5587 5587 5586 5585 5585 5583 5582 5581 5580 5578 5577 5575 5574 5572
5569 5570 5568 5574 5573 5573 5572 5572 5573 5573 5574 5574 5573 5573 5573 5573 5573 5573 5574 5574 5574 5574 5575 5575 5575 5576 5576 5576 5575 5575 5575 5574 5574 5573 5572 5571 5570 5569 5568 5566 5565 5563 5562 5560
5560 5559 5559 5563 5564 5564 5563 5563 5564 5564 5564 5564 5564 5564 5564 5564 5563 5564 5564 5564 5564 5564 5564 5564 5564 5564 5564 5564 5563 5563 5562 5562 5562 5561 5560 5559 5558 5557 5556 5555 5553 5552 5550 5549
5551 5550 5551 5556 5556 5555 5554 5554 5557 5556 5555 5555 5555 5555 5556 5555 5554 5554 5554 5554 5554 5554 5553 5553 5553 5553 5553 5552 5552 5551 5551 5550 5550 5549 5548 5547 5546 5545 5544 5543 5542 5540 5538 5537
5543 5542 5543 5547 5547 5546 5547 5548 5548 5546 5546 5546 5546 5546 5546 5545 5545 5544 5544 5544 5544 5543 5543 5543 5542 5542 5541 5541 5540 5540 5539 5539 5538 5538 5537 5536 5535 5534 5533 5531 5530 5529 5527 5526
5534 5534 5538 5538 5537 5538 5538 5538 5537 5537 5537 5537 5537 5536 5536 5536 5535 5535 5534 5534 5534 5534 5533 5532 5532 5531 5530 5529 5529 5528 5528 5528 5527 5526 5526 5524 5523 5522 5521 5520 5519 5517 5516 5515
5527 5529 5529 5529 5528 5529 5528 5528 5528 5528 5528 5528 5528 5528 5527 5527 5526 5526 5525 5524 5524 5524 5523 5522 5521 5520 5519 5518 5518 5517 5517 5517 5516 5515 5514 5513 5512 5511 5510 5509 5508 5506 5505 5504
5517 5519 5520 5520 5520 5520 5519 5519 5519 5519 5520 5520 5519 5519 5518 5518 5517 5516 5515 5515 5514 5514 5513 5512 5511 5510 5509 5508 5507 5507 5506 5506 5505 5504 5503 5502 5501 5500 5499 5498 5497 5496 5495 5493
5508 5510 5511 5511 5511 5511 5511 5511 5511 5511 5511 5511 5511 5510 5509 5509 5508 5507 5506 5505 5505 5504 5503 5502 5501 5500 5499 5498 5497 5496 5496 5495 5494 5493 5493 5492 5491 5490 5489 5487 5486 5485 5484 5483
5501 5502 5503 5503 5503 5503 5503 5502 5502 5502 5502 5502 5502 5501 5500 5499 5499 5498 5497 5496 5495 5494 5493 5492 5491 5490 5489 5488 5487 5486 5485 5484 5483 5482 5482 5481 5480 5480 5478 5477 5476 5474 5474 5473
5492 5493 5493 5494 5494 5494 5494 5494 5494 5494 5494 5494 5493 5492 5492 5491 5490 5489 5488 5487 5486 5485 5483 5482 5481 5480 5479 5477 5476 5475 5474 5473 5473 5472 5471 5470 5470 5469 5468 5467 5465 5465 5464 5463
5483 5484 5485 5486 5486 5486 5486 5486 5486 5486 5485 5485 5484 5484 5483 5482 5481 5480 5478 5477 5476 5475 5474 5473 5472 5471 5469 5468 5466 5465 5464 5463 5463 5462 5461 5460 5460 5459 5458 5457 5457 5455 5454 5453
5475 5476 5476 5477 5477 5477 5477 5477 5477 5477 5477 5476 5476 5475 5474 5473 5472 5471 5469 5468 5467 5466 5465 5463 5462 5461 5460 5458 5456 5455 5454 5453 5452 5452 5451 5450 5450 5449 5448 5448 5447 5446 5445 5444
5466 5467 5467 5468 5468 5468 5468 5468 5468 5468 5468 5467 5467 5466 5465 5464 5462 5461 5460 5459 5457 5457 5455 5454 5453 5451 5450 5448 5446 5445 5444 5443 5442 5442 5441 5441 5440 5440 5439 5439 5438 5437 5436 5435
5458 5458 5458 5459 5459 5459 5459 5459 5459 5459 5459 5458 5457 5456 5455 5454 5453 5452 5450 5449 5448 5446 5445 5444 5443 5441 5440 5438 5436 5435 5434 5433 5432 5432 5431 5431 5431 5431 5430 5430 5429 5428 5427 5426
5450 5450 5450 5451 5451 5451 5451 5450 5450 5449 5449 5448 5448 5447 5445 5444 5443 5442 5440 5439 5437 5436 5435 5434 5432 5431 5429 5428 5426 5425 5424 5423 5423 5422 5422 5422 5422 5422 5421 5421 5420 5419 5418 5417
5442 5442 5442 5442 5442 5442 5442 5441 5441 5440 5439 5438 5437 5436 5435 5433 5432 5431 5429 5428 5426 5425 5424 5423 5421 5420 5419 5417 5416 5415 5415 5414 5414 5413 5413 5413 5413 5413 5412 5412 5411 5410 5409 5408
5434 5434 5434 5434 5433 5433 5433 5432 5431 5430 5429 5428 5427 5426 5424 5423 5421 5420 5418 5417 5415 5414 5413 5412 5411 5410 5409 5407 5406 5406 5405 5405 5405 5404 5404 5404 5404 5404 5404 5403 5403 5402 5401 5400
5426 5426 5425 5425 5424 5424 5423 5422 5421 5420 5419 5418 5416 5415 5414 5412 5410 5409 5407 5406 5405 5403 5403 5402 5401 5400 5399 5398 5397 5396 5396 5396 5396 5396 5396 5396 5396 5396 5395 5395 5394 5393 5392 5391
5418 5417 5417 5416 5415 5415 5414 5413 5412 5411 5409 5408 5406 5405 5403 5402 5400 5398 5397 5395 5394 5393 5392 5392 5391 5390 5389 5388 5388 5388 5388 5388 5388 5388 5389 5389 5389 5388 5388 5387 5387 5386 5385 5384
5410 5409 5409 5408 5407 5406 5405 5404 5403 5402 5400 5398 5397 5395 5393 5392 5390 5388 5387 5385 5384 5383 5382 5382 5381 5381 5380 5380 5380 5380 5380 5380 5381 5381 5381 5381 5381 5381 5381 5380 5380 5379 5379 5378
5402 5402 5401 5400 5399 5398 5397 5396 5394 5393 5391 5389 5387 5385 5384 5382 5380 5378 5377 5376 5374 5373 5372 5372 5372 5372 5372 5372 5372 5373 5373 5373 5374 5374 5374 5375 5375 5375 5375 5374 5374 5373 5373 5372
5395 5394 5393 5392 5391 5390 5389 5387 5386 5384 5382 5381 5379 5376 5374 5373 5371 5369 5368 5366 5365 5364 5363 5363 5364 5364 5364 5365 5365 5365 5366 5366 5367 5367 5368 5368 5369 5369 5368 5368 5368 5368 5367 5367
5388 5387 5386 5384 5383 5382 5380 5379 5377 5376 5374 5372 5370 5368 5366 5364 5362 5360 5359 5358 5357 5356 5355 5355 5356 5356 5357 5358 5358 5359 5359 5360 5360 5361 5361 5362 5362 5363 5363 5362 5362 5362 5362 5362
5380 5379 5378 5377 5375 5374 5372 5371 5369 5367 5365 5364 5362 5360 5357 5355 5354 5352 5351 5350 5349 5349 5348 5348 5349 5349 5350 5351 5351 5352 5353 5353 5354 5355 5355 5356 5356 5357 5357 5357 5357 5357 5357 5358